« Back
NWS Peachtree City, Ga » Text Product » GA Regional Weather Roundup


Printer-friendly Version
Current Version              Previous Versions:   1  2  3  4  5  6  7  8  9  

Regional Weather Roundup

817
ASUS42 KFFC 262303
RWRGA
WEATHER ROUNDUP FOR GEORGIA
NATIONAL WEATHER SERVICE PEACHTREE CITY GA
700 PM EDT TUE MAY 26 2015

NOTE: "FAIR" INDICATES FEW OR NO CLOUDS BELOW 12,000 FEET WITH NO
SIGNIFICANT WEATHER AND/OR OBSTRUCTIONS TO VISIBILITY.

* = USE WITH CAUTION. THE STATIONS MARKED WITH AN ASTERISK MAY NOT
REPORT WEATHER SUCH AS PRECIPITATION, FOG, OR THUNDER AND ARE NOT
QUALITY CONTROLLED BY NWS.

THE REMARK "TC" DENOTES TEMPERATURE READING IN DEGREES CELSIUS.

GAZ001>058-270000-
NORTH GEORGIA

CITY           SKY/WX    TMP DP  RH WIND       PRES   REMARKS
ATLANTA        LGT RAIN  67  64  90 SE6       30.19F
ATHENS         RAIN      67  65  93 VRB5      30.25R FOG
CHAMBLEE       LGT RAIN  66  65  96 SE7       30.20F FOG
PEACHTREE CITY LGT RAIN  68  65  90 E3        30.20F
ROME           CLOUDY    70  68  93 S8        30.13R
WEST ATLANTA   LGT RAIN  68  65  90 SE8       30.19F
GAINESVILLE    RAIN      65  65 100 S6        30.25R FOG
CARTERSVILLE   LGT RAIN  68  65  90 S9        30.17S


CITY           SKY/WX    TMP DP  RH WIND       PRES   REMARKS
DALTON*        CLOUDY    68  68 100 S5        30.15R
LAWRENCEVILLE* LGT RAIN  66  61  82 CALM      30.21F FOG
MARIETTA       TSTM      68  68 100 SE9       30.19F
BLAIRSVILLE*   LGT RAIN  66  58  76 SE5       30.21S
$$

GAZ059>098-102>109-270000-
CENTRAL GEORGIA

CITY           SKY/WX    TMP DP  RH WIND       PRES   REMARKS
AUGUSTA-BUSH   TSTM      82  73  74 SE8       30.15R
AUGUSTA-DANIEL TSTM      86  71  60 SE6       30.17R HX  91
COLUMBUS       LGT RAIN  69  67  93 S6        30.19R
MACON          LGT RAIN  69  67  93 CALM      30.22F FOG
ROBINS AFB     LGT RAIN  70  68  94 SE5       30.22S


CITY           SKY/WX    TMP DP  RH WIND       PRES   REMARKS
LAGRANGE*      LGT RAIN  71  71 100 SE3       30.19R
SYLVANIA*      PTSUNNY   85  70  60 S5        30.20R
MILLEDGEVILLE* CLOUDY    70  70 100 NW9       30.23R
$$

GAZ099>101-110>166-270000-
SOUTH GEORGIA

CITY           SKY/WX    TMP DP  RH WIND       PRES   REMARKS
SAVANNAH       CLOUDY    82  68  62 S15       30.20R
VALDOSTA       LGT RAIN  72  70  93 CALM      30.17R
ALMA           CLOUDY    80  71  74 E6        30.14S
ALBANY         CLOUDY    72  68  87 NW3       30.23R
HUNTER AFB     MOSUNNY   81  71  71 SE10      30.18R
MOODY AFB      CLOUDY    73  70  88 SW13      30.16S
BRUNSWICK      SUNNY     82  66  57 SE12      30.20R


CITY           SKY/WX    TMP DP  RH WIND       PRES   REMARKS
BAINBRIDGE*    CLOUDY    73  72  94 S3        30.21S
MOULTRIE*      CLOUDY    75  72  88 NW9       30.21R
VIDALIA*       PTSUNNY   86  68  54 SE7       30.17R
WAYCROSS*      CLOUDY    84  72  67 SE9G16    30.15S HX  90
DOUGLAS*       TSTM      73  70  88 NW10G20   30.18S
$$



USA.gov is the U.S. government's official web portal to all federal, state and local government web resources and services.